Location: Poprad
(49.0500°N, 20.3000°E)
Time: 00:40:30
(UTC+01:00)

ISS - Pass Details

Date: 31 January 2021
Orbit: 417 x 422 km, 51.6° (Epoch: 06 March)

Event Time Altitude Azimuth Distance (km) Brightness Sun altitude
Rises 18:04:03 0° 288° (WNW) 2,375 1.2 -14.8°
Reaches altitude 10° 18:06:10 10° 290° (WNW) 1,509 0.0 -15.1°
Maximum altitude 18:09:33 78° 18° (NNE) 437 -3.8 -15.7°
Enters shadow 18:10:44 37° 97° (E) 668 -3.3 -15.9°
